Weather History for Langdon, ND

Change the Weather History Date:

Wednesday, November 21, 2012

  Actual Average (KDVL) Record (KDVL)
Temperature  
Mean Temperature 32 °F -  
Max Temperature 35 °F 31 °F 55 °F (2006)
Min Temperature 28 °F 17 °F -11 °F (1996)
Degree Days  
Heating Degree Days 34    
Moisture  
Dew Point 32 °F    
Average Humidity 99    
Maximum Humidity 100    
Minimum Humidity 87    
Precipitation  
Precipitation 0.00 in - - ()
Sea Level Pressure  
Sea Level Pressure 29.73 in    
Wind  
Wind Speed 9 mph (ENE)    
Max Wind Speed 16 mph    
Max Gust Speed -    
Visibility 8 miles    
Events Fog    
Averages and records for this station are not official NWS values.
T = Trace of Precipitation, MM = Missing Value Source: NWS Daily Summary

Daily Weather History Graph

Daily Weather History Graph

Search for Another Location

Airport:

Trip Planner

Search our weather history database for the weather conditions in past years. The results will help you decide how hot, cold, wet, or windy it might be!

Date:

Astronomy

Nov. 21, 2012 Rise Set
Actual Time 7:52 AM CST 4:46 PM CST
Civil Twilight 7:16 AM CST 5:21 PM CST
Nautical Twilight 6:38 AM CST 6:00 PM CST
Astronomical Twilight 6:00 AM CST 6:38 PM CST
Moon 1:31 PM CST (11/21) 12:41 AM CST (11/21)
Length of Visible Light 10h 04m
Length of Day
8h 54m
First Quarter, 62% of the Moon is Illuminated
Nov 21
First Quarter
Nov 28
Full
Dec 6
Last Quarter
Dec 13
New
Dec 19
First Quarter

Hourly Weather History & Observations

Time (CST) Temp. Windchill Dew Point Humidity Pressure Visibility Wind Dir Wind Speed Gust Speed Precip Events Conditions
12:15 AM 32.0 °F 23.6 °F 32.0 °F 100% 29.83 in 10.0 mi WSW 10.4 mph - N/A   Clear
12:35 AM 32.0 °F 24.8 °F 32.0 °F 100% 29.83 in 10.0 mi West 8.1 mph - N/A   Clear
12:55 AM 32.0 °F 24.8 °F 32.0 °F 100% 29.83 in 10.0 mi West 8.1 mph - N/A   Clear
1:15 AM 33.8 °F 27.0 °F 33.8 °F 100% 29.83 in 10.0 mi WSW 8.1 mph - N/A   Clear
1:35 AM 32.0 °F 25.6 °F 32.0 °F 100% 29.83 in 10.0 mi WSW 6.9 mph - N/A   Clear
1:55 AM 32.0 °F 24.8 °F 32.0 °F 100% 29.83 in 10.0 mi West 8.1 mph - N/A   Clear
2:15 AM 32.0 °F 24.2 °F 32.0 °F 100% 29.83 in 10.0 mi West 9.2 mph - N/A   Clear
2:35 AM 33.8 °F 27.0 °F 33.8 °F 100% 29.83 in 10.0 mi West 8.1 mph - N/A   Clear
2:55 AM 33.8 °F 29.6 °F 33.8 °F 100% 29.84 in 10.0 mi WNW 4.6 mph - N/A   Clear
3:15 AM 33.8 °F 29.6 °F 33.8 °F 100% 29.84 in 10.0 mi North 4.6 mph - N/A   Clear
3:35 AM 33.8 °F 28.6 °F 33.8 °F 100% 29.85 in 10.0 mi NNE 5.8 mph - N/A   Clear
3:55 AM 35.6 °F 31.7 °F 33.8 °F 93% 29.84 in 10.0 mi ENE 4.6 mph - N/A   Clear
4:15 AM 33.8 °F - 33.8 °F 100% 29.84 in 10.0 mi Calm Calm - N/A   Clear
4:35 AM 32.0 °F 27.5 °F 32.0 °F 100% 29.84 in 10.0 mi WNW 4.6 mph - N/A   Clear
4:55 AM 33.8 °F 30.8 °F 33.8 °F 100% 29.85 in 10.0 mi West 3.5 mph - N/A   Clear
5:15 AM 32.0 °F - 32.0 °F 100% 29.85 in 10.0 mi Calm Calm - N/A   Clear
5:35 AM 32.0 °F 28.7 °F 32.0 °F 100% 29.85 in 10.0 mi North 3.5 mph - N/A   Clear
5:55 AM 32.0 °F 27.5 °F 32.0 °F 100% 29.84 in 10.0 mi North 4.6 mph - N/A   Clear
6:15 AM 32.0 °F 26.4 °F 32.0 °F 100% 29.83 in 10.0 mi NE 5.8 mph - N/A   Clear
6:35 AM 33.8 °F 27.7 °F 32.0 °F 93% 29.82 in 10.0 mi ENE 6.9 mph - N/A   Clear
6:55 AM 35.6 °F 29.2 °F 32.0 °F 87% 29.83 in 10.0 mi NE 8.1 mph - N/A   Scattered Clouds
7:15 AM 35.6 °F 28.6 °F 32.0 °F 87% 29.83 in 10.0 mi NE 9.2 mph - N/A   Scattered Clouds
7:35 AM 35.6 °F 29.9 °F 32.0 °F 87% 29.84 in 10.0 mi ENE 6.9 mph - N/A   Scattered Clouds
7:55 AM 35.6 °F 28.0 °F 33.8 °F 93% 29.83 in 10.0 mi NE 10.4 mph - N/A   Mostly Cloudy
8:15 AM 33.8 °F 26.4 °F 33.8 °F 100% 29.83 in 10.0 mi ENE 9.2 mph - N/A   Overcast
8:35 AM 33.8 °F 26.4 °F 33.8 °F 100% 29.83 in 10.0 mi ENE 9.2 mph - N/A   Scattered Clouds
8:55 AM 33.8 °F 25.8 °F 32.0 °F 93% 29.83 in 10.0 mi ENE 10.4 mph - N/A   Clear
9:15 AM 32.0 °F 21.6 °F 32.0 °F 100% 29.83 in 10.0 mi ENE 15.0 mph - N/A   Clear
9:35 AM 32.0 °F 22.5 °F 32.0 °F 100% 29.82 in 10.0 mi East 12.7 mph - N/A   Clear
9:55 AM 32.0 °F 21.2 °F 32.0 °F 100% 29.81 in 10.0 mi East 16.1 mph - N/A   Clear
10:15 AM 32.0 °F 22.5 °F 32.0 °F 100% 29.81 in 10.0 mi East 12.7 mph - N/A   Clear
10:35 AM 32.0 °F 22.5 °F 32.0 °F 100% 29.82 in 10.0 mi East 12.7 mph - N/A   Partly Cloudy
10:55 AM 33.8 °F 24.8 °F 33.8 °F 100% 29.81 in 10.0 mi East 12.7 mph - N/A   Mostly Cloudy
11:15 AM 32.0 °F 22.5 °F 32.0 °F 100% 29.81 in 10.0 mi East 12.7 mph - N/A   Mostly Cloudy
11:35 AM 32.0 °F 22.5 °F 32.0 °F 100% 29.79 in 10.0 mi East 12.7 mph - N/A   Mostly Cloudy
11:55 AM 32.0 °F 22.1 °F 32.0 °F 100% 29.77 in 9.0 mi ESE 13.8 mph - N/A   Mostly Cloudy
12:15 PM 32.0 °F 23.6 °F 32.0 °F 100% 29.75 in 9.0 mi ESE 10.4 mph - N/A   Overcast
12:35 PM 33.8 °F 27.0 °F 33.8 °F 100% 29.76 in 10.0 mi East 8.1 mph - N/A   Overcast
12:55 PM 35.6 °F 29.2 °F 33.8 °F 93% 29.75 in 10.0 mi ESE 8.1 mph - N/A   Overcast
1:15 PM 35.6 °F 29.2 °F 33.8 °F 93% 29.75 in 10.0 mi East 8.1 mph - N/A   Overcast
1:35 PM 33.8 °F 25.8 °F 33.8 °F 100% 29.74 in 10.0 mi East 10.4 mph - N/A   Mostly Cloudy
1:55 PM 35.6 °F 27.5 °F 33.8 °F 93% 29.71 in 10.0 mi East 11.5 mph - N/A   Overcast
2:15 PM 35.6 °F 27.1 °F 33.8 °F 93% 29.70 in 10.0 mi East 12.7 mph - N/A   Mostly Cloudy
2:35 PM 33.8 °F 25.3 °F 33.8 °F 100% 29.69 in 10.0 mi East 11.5 mph - N/A   Mostly Cloudy
2:55 PM 33.8 °F 24.8 °F 33.8 °F 100% 29.67 in 10.0 mi ENE 12.7 mph - N/A   Overcast
3:15 PM 33.8 °F 24.3 °F 33.8 °F 100% 29.65 in 10.0 mi East 13.8 mph - N/A   Scattered Clouds
3:35 PM 33.8 °F 24.3 °F 33.8 °F 100% 29.65 in 10.0 mi East 13.8 mph - N/A   Clear
3:55 PM 32.0 °F 24.2 °F 32.0 °F 100% 29.66 in 10.0 mi East 9.2 mph - N/A   Clear
4:15 PM 32.0 °F 23.0 °F 32.0 °F 100% 29.65 in 9.0 mi East 11.5 mph - N/A   Partly Cloudy
4:35 PM 32.0 °F 23.0 °F 32.0 °F 100% 29.64 in 8.0 mi East 11.5 mph - N/A   Clear
4:55 PM 32.0 °F 22.1 °F 32.0 °F 100% 29.65 in 5.0 mi East 13.8 mph - N/A   Mostly Cloudy
5:15 PM 32.0 °F 22.5 °F 32.0 °F 100% 29.64 in 5.0 mi East 12.7 mph - N/A   Mostly Cloudy
5:35 PM 32.0 °F 21.2 °F 32.0 °F 100% 29.63 in 5.0 mi East 16.1 mph - N/A   Mostly Cloudy
5:55 PM 32.0 °F 21.6 °F 32.0 °F 100% 29.61 in 1.8 mi East 15.0 mph - N/A   Overcast
6:15 PM 32.0 °F 22.5 °F 32.0 °F 100% 29.60 in 0.5 mi ESE 12.7 mph - N/A Fog Light Freezing Fog
6:35 PM 32.0 °F 22.5 °F 32.0 °F 100% 29.60 in 2.5 mi East 12.7 mph - N/A   Mostly Cloudy
6:55 PM 30.2 °F 20.2 °F 30.2 °F 100% 29.59 in 2.5 mi East 12.7 mph - N/A   Partly Cloudy
7:15 PM 30.2 °F 22.6 °F 30.2 °F 100% 29.59 in 3.0 mi East 8.1 mph - N/A   Clear
7:35 PM 30.2 °F 22.6 °F 30.2 °F 100% 29.60 in 4.0 mi NE 8.1 mph - N/A   Clear
7:55 PM 30.2 °F 23.4 °F 30.2 °F 100% 29.59 in 3.0 mi ENE 6.9 mph - N/A   Scattered Clouds
8:15 PM 30.2 °F 24.3 °F 30.2 °F 100% 29.58 in 2.5 mi ENE 5.8 mph - N/A   Mostly Cloudy
8:35 PM 30.2 °F 25.4 °F 30.2 °F 100% 29.58 in 4.0 mi NE 4.6 mph - N/A   Clear
8:55 PM 30.2 °F 24.3 °F 30.2 °F 100% 29.57 in 3.0 mi ENE 5.8 mph - N/A   Clear
9:15 PM 30.2 °F 25.4 °F 30.2 °F 100% 29.57 in 5.0 mi NE 4.6 mph - N/A   Clear
9:35 PM 28.4 °F 24.6 °F 28.4 °F 100% 29.56 in 4.0 mi NNE 3.5 mph - N/A   Clear
9:55 PM 28.4 °F 21.2 °F 28.4 °F 100% 29.57 in 1.0 mi North 6.9 mph - N/A   Overcast
10:15 PM 28.4 °F 20.4 °F 28.4 °F 100% 29.57 in 0.5 mi North 8.1 mph - N/A Fog Light Freezing Fog
10:35 PM 28.4 °F 21.2 °F 28.4 °F 100% 29.55 in 0.5 mi NE 6.9 mph - N/A Fog Light Freezing Fog
10:55 PM 28.4 °F 17.0 °F 28.4 °F 100% 29.57 in 0.5 mi North 15.0 mph - N/A Fog Light Freezing Fog
11:15 PM 28.4 °F 17.0 °F 28.4 °F 100% 29.56 in 0.2 mi North 15.0 mph - N/A Fog Light Freezing Fog
11:35 PM 28.4 °F 18.5 °F 28.4 °F 100% 29.54 in 0.2 mi North 11.5 mph - N/A Fog Light Freezing Fog
11:55 PM 28.4 °F 18.0 °F 28.4 °F 100% 29.56 in 0.2 mi North 12.7 mph - N/A Fog Light Freezing Fog